Time,TemperatureF,DewpointF,PressureIn,WindDirection,WindDirectionDegrees,WindSpeedMPH,WindSpeedGustMPH,Humidity,HourlyPrecipIn,Conditions,Clouds,dailyrainin,SoftwareType,DateUTC
2013-07-03 00:00:00,69.4,58.0,18.49,NE,45,0.0,0.0,67,0.00,,SKC,0.00,VWS V14.01,2013-07-03 05:00:00,
2013-07-03 00:30:00,66.9,57.6,18.49,NE,45,0.0,0.0,72,0.00,,SKC,0.00,VWS V14.01,2013-07-03 05:30:00,
2013-07-03 01:00:00,66.7,58.2,18.49,NE,45,0.0,0.0,74,0.00,,SKC,0.00,VWS V14.01,2013-07-03 06:00:00,
2013-07-03 01:30:00,65.6,57.8,18.49,NE,45,0.0,0.0,76,0.00,,SKC,0.00,VWS V14.01,2013-07-03 06:30:00,
2013-07-03 02:00:00,66.7,58.2,18.49,NE,45,0.0,0.0,74,0.00,,SKC,0.00,VWS V14.01,2013-07-03 07:00:00,
2013-07-03 02:30:00,65.6,57.8,18.49,NE,45,0.0,0.0,76,0.00,,SKC,0.00,VWS V14.01,2013-07-03 07:30:00,
2013-07-03 03:00:00,65.1,58.1,18.50,NE,45,0.0,0.0,78,0.00,,SKC,0.00,VWS V14.01,2013-07-03 08:00:00,
2013-07-03 03:30:00,63.8,57.9,18.50,NE,45,0.0,0.0,81,0.00,,SKC,0.00,VWS V14.01,2013-07-03 08:30:00,
2013-07-03 04:00:00,63.6,58.0,18.50,NE,45,0.0,1.0,82,0.00,,SKC,0.00,VWS V14.01,2013-07-03 09:00:00,
2013-07-03 04:30:00,63.4,57.5,18.50,NE,45,0.0,1.0,81,0.00,,SKC,0.00,VWS V14.01,2013-07-03 09:30:00,
2013-07-03 05:00:00,63.6,58.0,18.50,NE,45,0.0,1.0,82,0.00,,SKC,0.00,VWS V14.01,2013-07-03 10:00:00,
2013-07-03 05:30:00,62.0,57.1,18.49,NE,45,0.0,0.0,84,0.00,,SKC,0.00,VWS V14.01,2013-07-03 10:30:00,
2013-07-03 06:00:00,62.8,57.6,18.50,NE,45,0.0,1.0,83,0.00,,SKC,0.00,VWS V14.01,2013-07-03 11:00:00,
2013-07-03 06:30:00,61.2,56.7,18.50,NE,45,0.0,0.0,85,0.00,,SKC,0.00,VWS V14.01,2013-07-03 11:30:00,
2013-07-03 07:00:00,62.0,58.1,18.50,NE,45,0.0,0.0,87,0.00,,SKC,0.00,VWS V14.01,2013-07-03 12:00:00,
2013-07-03 07:30:00,65.9,60.3,18.50,NE,45,0.0,1.0,82,0.00,,SKC,0.00,VWS V14.01,2013-07-03 12:30:00,
2013-07-03 08:00:00,70.9,61.8,18.50,ENE,68,0.0,1.0,73,0.00,,SKC,0.00,VWS V14.01,2013-07-03 13:00:00,
2013-07-03 08:30:00,65.9,60.3,18.50,NE,45,0.0,1.0,82,0.00,,SKC,0.00,VWS V14.01,2013-07-03 13:30:00,
2013-07-03 09:00:00,70.9,61.8,18.50,ENE,68,0.0,1.0,73,0.00,,SKC,0.00,VWS V14.01,2013-07-03 14:00:00,
2013-07-03 09:28:00,79.8,62.2,18.50,ENE,65,0.0,3.0,55,0.00,,SKC,0.00,VWS V14.01,2013-07-03 14:28:00,
2013-07-03 09:30:00,74.8,61.8,18.50,ENE,68,0.0,2.0,64,0.00,,SKC,0.00,VWS V14.01,2013-07-03 14:30:00,
2013-07-03 09:31:00,79.9,62.8,18.50,ENE,65,1.0,3.0,56,0.00,,SKC,0.00,VWS V14.01,2013-07-03 14:31:00,
2013-07-03 09:40:00,80.5,63.9,18.50,ENE,65,1.0,3.0,57,0.00,,SKC,0.00,VWS V14.01,2013-07-03 14:40:00,
2013-07-03 09:46:00,80.7,63.6,18.50,ENE,67,0.0,3.0,56,0.00,,SKC,0.00,VWS V14.01,2013-07-03 14:46:00,
2013-07-03 09:52:00,81.1,62.4,18.50,West,260,2.0,4.0,53,0.00,,SKC,0.00,VWS V14.01,2013-07-03 14:52:00,
2013-07-03 09:58:00,81.0,62.8,18.50,WSW,238,2.0,4.0,54,0.00,,SKC,0.00,VWS V14.01,2013-07-03 14:58:00,
2013-07-03 10:00:00,81.1,62.9,18.50,SW,227,1.0,4.0,54,0.00,,SKC,0.00,VWS V14.01,2013-07-03 15:00:00,
2013-07-03 10:04:00,81.2,62.5,18.50,WSW,243,0.0,3.0,53,0.00,,SKC,0.00,VWS V14.01,2013-07-03 15:04:00,
2013-07-03 10:14:00,81.7,63.5,18.49,SSW,213,0.0,3.0,54,0.00,,SKC,0.00,VWS V14.01,2013-07-03 15:14:00,
2013-07-03 10:20:00,82.1,63.3,18.49,West,267,0.0,5.0,53,0.00,,SKC,0.00,VWS V14.01,2013-07-03 15:20:00,
2013-07-03 10:23:00,82.1,62.8,18.50,West,263,1.0,5.0,52,0.00,,SKC,0.00,VWS V14.01,2013-07-03 15:23:00,
2013-07-03 10:29:00,82.1,61.6,18.50,SW,236,0.0,5.0,50,0.00,,SKC,0.00,VWS V14.01,2013-07-03 15:29:00,
2013-07-03 10:30:00,79.9,62.8,18.50,ENE,65,1.0,3.0,56,0.00,,SKC,0.00,VWS V14.01,2013-07-03 15:30:00,
2013-07-03 10:35:00,82.6,63.8,18.50,SW,236,1.0,1.0,53,0.00,,SKC,0.00,VWS V14.01,2013-07-03 15:35:00,
2013-07-03 10:41:00,83.6,63.6,18.50,West,268,2.0,2.0,51,0.00,,SKC,0.00,VWS V14.01,2013-07-03 15:41:00,
2013-07-03 10:47:00,83.9,63.3,18.50,West,261,0.0,4.0,50,0.00,,SKC,0.00,VWS V14.01,2013-07-03 15:47:00,
2013-07-03 10:53:00,84.1,64.0,18.50,WSW,255,0.0,4.0,51,0.00,,SKC,0.00,VWS V14.01,2013-07-03 15:53:00,
2013-07-03 10:59:00,84.2,62.4,18.50,South,173,0.0,4.0,48,0.00,,SKC,0.00,VWS V14.01,2013-07-03 15:59:00,
2013-07-03 11:00:00,81.1,62.9,18.50,SW,227,1.0,4.0,54,0.00,,SKC,0.00,VWS V14.01,2013-07-03 16:00:00,
2013-07-03 11:01:00,84.5,63.3,18.50,NW,313,0.0,4.0,49,0.00,,SKC,0.00,VWS V14.01,2013-07-03 16:01:00,
2013-07-03 11:08:00,84.7,62.3,18.50,SW,224,2.0,5.0,47,0.00,,SKC,0.00,VWS V14.01,2013-07-03 16:08:00,
2013-07-03 11:17:00,84.7,62.3,18.50,South,171,0.0,5.0,47,0.00,,SKC,0.00,VWS V14.01,2013-07-03 16:17:00,
2013-07-03 11:23:00,84.8,61.7,18.50,South,175,2.0,7.0,46,0.00,,SKC,0.00,VWS V14.01,2013-07-03 16:23:00,
2013-07-03 11:29:00,84.5,61.5,18.50,North,355,1.0,7.0,46,0.00,,SKC,0.00,VWS V14.01,2013-07-03 16:29:00,
2013-07-03 11:30:00,82.2,62.8,18.50,SW,235,1.0,5.0,52,0.00,,SKC,0.00,VWS V14.01,2013-07-03 16:30:00,
2013-07-03 11:35:00,85.4,61.0,18.50,NNW,337,0.0,4.0,44,0.00,,SKC,0.00,VWS V14.01,2013-07-03 16:35:00,
2013-07-03 11:41:00,85.8,61.4,18.50,SW,233,2.0,4.0,44,0.00,,SKC,0.00,VWS V14.01,2013-07-03 16:41:00,
2013-07-03 11:47:00,85.2,60.2,18.50,SSE,158,2.0,4.0,43,0.00,,SKC,0.00,VWS V14.01,2013-07-03 16:47:00,
2013-07-03 11:53:00,84.0,59.1,18.50,WSW,250,3.0,6.0,43,0.00,,SKC,0.00,VWS V14.01,2013-07-03 16:53:00,
2013-07-03 11:59:00,84.3,60.7,18.50,ENE,69,0.0,6.0,45,0.00,,SKC,0.00,VWS V14.01,2013-07-03 16:59:00,
2013-07-03 12:00:00,84.5,63.3,18.50,NW,313,0.0,4.0,49,0.00,,SKC,0.00,VWS V14.01,2013-07-03 17:00:00,
2013-07-03 12:05:00,85.8,60.7,18.50,NNE,29,1.0,2.0,43,0.00,,SKC,0.00,VWS V14.01,2013-07-03 17:05:00,
2013-07-03 12:11:00,87.0,58.3,18.50,WSW,247,0.0,4.0,38,0.00,,SKC,0.00,VWS V14.01,2013-07-03 17:11:00,
2013-07-03 12:21:00,86.4,57.1,18.50,WSW,254,0.0,7.0,37,0.00,,SKC,0.00,VWS V14.01,2013-07-03 17:21:00,
2013-07-03 12:27:00,86.9,57.5,18.50,SSE,161,0.0,7.0,37,0.00,,SKC,0.00,VWS V14.01,2013-07-03 17:27:00,
2013-07-03 12:30:00,84.8,62.3,18.50,SW,228,3.0,7.0,47,0.00,,SKC,0.00,VWS V14.01,2013-07-03 17:30:00,
2013-07-03 12:33:00,87.0,57.6,18.50,South,190,3.0,3.0,37,0.00,,SKC,0.00,VWS V14.01,2013-07-03 17:33:00,
2013-07-03 12:48:00,87.4,58.0,17.00,NW,320,0.0,5.0,37,0.00,,SKC,0.00,VWS V14.01,2013-07-03 17:48:00,
2013-07-03 12:54:00,88.3,58.0,17.00,WSW,249,2.0,5.0,36,0.00,,SKC,0.00,VWS V14.01,2013-07-03 17:54:00,
2013-07-03 13:00:00,88.6,59.0,17.00,SSW,194,3.0,5.0,37,0.00,,SKC,0.00,VWS V14.01,2013-07-03 18:00:00,
2013-07-03 13:01:00,88.6,58.2,17.00,WSW,250,2.0,5.0,36,0.00,,SKC,0.00,VWS V14.01,2013-07-03 18:01:00,
2013-07-03 13:07:00,88.9,60.0,17.00,NW,310,0.0,3.0,38,0.00,,SKC,0.00,VWS V14.01,2013-07-03 18:07:00,
2013-07-03 13:13:00,89.3,58.1,18.49,West,261,0.0,6.0,35,0.00,,SKC,0.00,VWS V14.01,2013-07-03 18:13:00,
2013-07-03 13:19:00,88.5,55.8,18.49,West,260,3.0,6.0,33,0.00,,SKC,0.00,VWS V14.01,2013-07-03 18:19:00,
2013-07-03 13:28:00,87.1,56.9,18.49,SW,215,0.0,6.0,36,0.00,,SKC,0.00,VWS V14.01,2013-07-03 18:28:00,
2013-07-03 13:30:00,87.4,57.2,18.49,SW,215,0.0,6.0,36,0.00,,SKC,0.00,VWS V14.01,2013-07-03 18:30:00,
2013-07-03 13:37:00,88.4,58.1,18.49,West,263,0.0,4.0,36,0.00,,SKC,0.00,VWS V14.01,2013-07-03 18:37:00,
2013-07-03 13:43:00,89.4,57.4,18.50,SW,236,1.0,4.0,34,0.00,,SKC,0.00,VWS V14.01,2013-07-03 18:43:00,
2013-07-03 13:49:00,89.0,56.2,18.50,WSW,241,2.0,7.0,33,0.00,,SKC,0.00,VWS V14.01,2013-07-03 18:49:00,
2013-07-03 13:55:00,88.8,56.0,18.50,SE,142,5.0,7.0,33,0.00,,SKC,0.00,VWS V14.01,2013-07-03 18:55:00,
2013-07-03 14:00:00,88.6,59.0,17.00,SSW,194,3.0,5.0,37,0.00,,SKC,0.00,VWS V14.01,2013-07-03 19:00:00,
2013-07-03 14:01:00,87.8,54.3,18.50,ENE,78,1.0,7.0,32,0.00,,SKC,0.00,VWS V14.01,2013-07-03 19:01:00,
2013-07-03 14:10:00,86.5,54.0,18.50,ESE,104,2.0,5.0,33,0.00,,SKC,0.00,VWS V14.01,2013-07-03 19:10:00,
2013-07-03 14:20:00,88.4,55.7,18.50,ESE,103,0.0,5.0,33,0.00,,SKC,0.00,VWS V14.01,2013-07-03 19:20:00,
2013-07-03 14:26:00,89.3,55.6,18.50,NNE,21,3.0,5.0,32,0.00,,SKC,0.00,VWS V14.01,2013-07-03 19:26:00,
2013-07-03 14:30:00,87.4,57.2,18.49,SW,215,0.0,6.0,36,0.00,,SKC,0.00,VWS V14.01,2013-07-03 19:30:00,
2013-07-03 14:31:00,90.1,55.4,18.50,ENE,59,1.0,5.0,31,0.00,,SKC,0.00,VWS V14.01,2013-07-03 19:31:00,
2013-07-03 14:41:00,89.2,52.8,18.50,East,101,2.0,6.0,29,0.00,,SKC,0.00,VWS V14.01,2013-07-03 19:41:00,
2013-07-03 14:47:00,90.1,52.6,18.50,NW,316,1.0,6.0,28,0.00,,SKC,0.00,VWS V14.01,2013-07-03 19:47:00,
2013-07-03 14:53:00,90.8,54.2,18.50,South,180,2.0,6.0,29,0.00,,SKC,0.00,VWS V14.01,2013-07-03 19:53:00,
2013-07-03 14:59:00,89.3,52.9,18.50,SSE,154,3.0,8.0,29,0.00,,SKC,0.00,VWS V14.01,2013-07-03 19:59:00,
2013-07-03 15:00:00,87.8,54.3,18.50,East,89,2.0,7.0,32,0.00,,SKC,0.00,VWS V14.01,2013-07-03 20:00:00,
2013-07-03 15:05:00,89.6,54.1,18.50,SSE,153,0.0,2.0,30,0.00,,SKC,0.00,VWS V14.01,2013-07-03 20:05:00,
2013-07-03 15:11:00,90.3,54.7,18.50,West,261,2.0,5.0,30,0.00,,SKC,0.00,VWS V14.01,2013-07-03 20:11:00,
2013-07-03 15:17:00,90.6,52.1,18.50,West,261,0.0,5.0,27,0.00,,SKC,0.00,VWS V14.01,2013-07-03 20:17:00,
2013-07-03 15:27:00,91.3,53.7,18.50,NNE,15,3.0,7.0,28,0.00,,SKC,0.00,VWS V14.01,2013-07-03 20:27:00,
2013-07-03 15:30:00,90.1,55.4,18.50,ENE,59,1.0,5.0,31,0.00,,SKC,0.00,VWS V14.01,2013-07-03 20:30:00,
2013-07-03 15:33:00,91.6,53.9,18.50,East,80,0.0,2.0,28,0.00,,SKC,0.00,VWS V14.01,2013-07-03 20:33:00,
2013-07-03 15:39:00,91.0,54.4,18.49,South,171,2.0,3.0,29,0.00,,SKC,0.00,VWS V14.01,2013-07-03 20:39:00,
2013-07-03 15:45:00,89.5,53.1,18.50,ESE,115,1.0,7.0,29,0.00,,SKC,0.00,VWS V14.01,2013-07-03 20:45:00,
2013-07-03 15:51:00,89.0,55.3,18.50,ESE,108,0.0,7.0,32,0.00,,SKC,0.00,VWS V14.01,2013-07-03 20:51:00,
2013-07-03 15:57:00,89.3,52.9,18.50,South,181,1.0,7.0,29,0.00,,SKC,0.00,VWS V14.01,2013-07-03 20:57:00,
2013-07-03 16:00:00,89.3,52.9,18.50,SSE,153,2.0,8.0,29,0.00,,SKC,0.00,VWS V14.01,2013-07-03 21:00:00,
2013-07-03 16:03:00,89.7,53.2,18.50,SSW,213,1.0,6.0,29,0.00,,SKC,0.00,VWS V14.01,2013-07-03 21:03:00,
2013-07-03 16:09:00,89.7,53.2,18.50,West,277,2.0,6.0,29,0.00,,SKC,0.00,VWS V14.01,2013-07-03 21:09:00,
2013-07-03 16:15:00,90.1,53.6,18.50,SW,228,1.0,6.0,29,0.00,,SKC,0.00,VWS V14.01,2013-07-03 21:15:00,
2013-07-03 16:24:00,91.1,54.5,18.50,South,182,0.0,6.0,29,0.00,,SKC,0.00,VWS V14.01,2013-07-03 21:24:00,
2013-07-03 16:30:00,89.9,56.1,18.50,East,100,1.0,7.0,32,0.00,,SKC,0.00,VWS V14.01,2013-07-03 21:30:00,
2013-07-03 16:36:00,90.0,52.5,18.50,ENE,61,3.0,6.0,28,0.00,,SKC,0.00,VWS V14.01,2013-07-03 21:36:00,
2013-07-03 16:45:00,89.7,52.3,18.50,East,84,0.0,7.0,28,0.00,,SKC,0.00,VWS V14.01,2013-07-03 21:45:00,
2013-07-03 16:52:00,90.0,52.5,18.50,South,188,0.0,7.0,28,0.00,,SKC,0.00,VWS V14.01,2013-07-03 21:52:00,
2013-07-03 16:58:00,90.1,53.6,18.50,SE,135,1.0,8.0,29,0.00,,SKC,0.00,VWS V14.01,2013-07-03 21:58:00,
2013-07-03 17:00:00,89.7,53.2,18.50,SW,234,3.0,7.0,29,0.00,,SKC,0.00,VWS V14.01,2013-07-03 22:00:00,
2013-07-03 17:04:00,90.2,51.7,18.50,East,90,2.0,3.0,27,0.00,,SKC,0.00,VWS V14.01,2013-07-03 22:04:00,
2013-07-03 17:10:00,89.9,54.3,18.50,East,94,1.0,5.0,30,0.00,,SKC,0.00,VWS V14.01,2013-07-03 22:10:00,
2013-07-03 17:16:00,90.3,52.8,18.50,NW,306,0.0,5.0,28,0.00,,SKC,0.00,VWS V14.01,2013-07-03 22:16:00,
2013-07-03 17:28:00,92.2,52.4,18.50,West,276,0.0,5.0,26,0.00,,SKC,0.00,VWS V14.01,2013-07-03 22:28:00,
2013-07-03 17:30:00,90.0,54.4,18.50,ENE,64,2.0,7.0,30,0.00,,SKC,0.00,VWS V14.01,2013-07-03 22:30:00,
2013-07-03 17:34:00,92.5,51.6,18.50,West,276,0.0,2.0,25,0.00,,SKC,0.00,VWS V14.01,2013-07-03 22:34:00,
2013-07-03 17:40:00,92.2,54.4,18.50,WNW,300,0.0,2.0,28,0.00,,SKC,0.00,VWS V14.01,2013-07-03 22:40:00,
2013-07-03 17:46:00,92.0,52.2,18.50,ENE,60,1.0,3.0,26,0.00,,SKC,0.00,VWS V14.01,2013-07-03 22:46:00,
2013-07-03 17:52:00,91.1,53.5,18.50,ESE,113,2.0,7.0,28,0.00,,SKC,0.00,VWS V14.01,2013-07-03 22:52:00,
2013-07-03 17:58:00,91.0,51.4,18.50,NNE,30,1.0,7.0,26,0.00,,SKC,0.00,VWS V14.01,2013-07-03 22:58:00,
2013-07-03 18:00:00,89.8,53.3,18.50,East,101,3.0,8.0,29,0.00,,SKC,0.00,VWS V14.01,2013-07-03 23:00:00,
2013-07-03 18:07:00,91.4,51.7,18.50,West,279,1.0,4.0,26,0.00,,SKC,0.00,VWS V14.01,2013-07-03 23:07:00,
2013-07-03 18:23:00,90.4,52.9,18.50,East,84,1.0,6.0,28,0.00,,SKC,0.00,VWS V14.01,2013-07-03 23:23:00,
2013-07-03 18:29:00,89.7,54.2,18.50,East,98,5.0,6.0,30,0.00,,SKC,0.00,VWS V14.01,2013-07-03 23:29:00,
2013-07-03 18:30:00,92.4,52.6,18.50,West,276,0.0,5.0,26,0.00,,SKC,0.00,VWS V14.01,2013-07-03 23:30:00,
2013-07-03 18:35:00,89.2,52.8,18.50,ENE,77,0.0,3.0,29,0.00,,SKC,0.00,VWS V14.01,2013-07-03 23:35:00,
2013-07-03 18:44:00,89.3,52.0,18.50,NE,55,1.0,3.0,28,0.00,,SKC,0.00,VWS V14.01,2013-07-03 23:44:00,
2013-07-03 18:53:00,89.5,54.9,18.50,East,82,1.0,3.0,31,0.00,,SKC,0.00,VWS V14.01,2013-07-03 23:53:00,
2013-07-03 18:59:00,88.8,54.3,18.50,East,92,1.0,3.0,31,0.00,,SKC,0.00,VWS V14.01,2013-07-03 23:59:00,
2013-07-03 19:00:00,91.2,51.6,18.50,North,5,2.0,7.0,26,0.00,,SKC,0.00,VWS V14.01,2013-07-04 00:00:00,
2013-07-03 19:05:00,88.0,53.6,18.50,ENE,78,1.0,2.0,31,0.00,,SKC,0.00,VWS V14.01,2013-07-04 00:05:00,
2013-07-03 19:11:00,87.5,53.2,18.50,East,82,2.0,3.0,31,0.00,,SKC,0.00,VWS V14.01,2013-07-04 00:11:00,
2013-07-03 19:17:00,87.0,52.7,18.50,East,84,0.0,3.0,31,0.00,,SKC,0.00,VWS V14.01,2013-07-04 00:17:00,
2013-07-03 19:23:00,86.8,55.1,18.50,East,84,1.0,3.0,34,0.00,,SKC,0.00,VWS V14.01,2013-07-04 00:23:00,
2013-07-03 19:29:00,86.3,53.8,18.50,East,84,0.0,3.0,33,0.00,,SKC,0.00,VWS V14.01,2013-07-04 00:29:00,
2013-07-03 19:30:00,89.4,53.0,18.50,NNE,28,2.0,6.0,29,0.00,,SKC,0.00,VWS V14.01,2013-07-04 00:30:00,
2013-07-03 19:35:00,86.0,56.0,18.50,East,84,0.0,1.0,36,0.00,,SKC,0.00,VWS V14.01,2013-07-04 00:35:00,
2013-07-03 19:42:00,85.5,54.8,18.50,East,84,1.0,2.0,35,0.00,,SKC,0.00,VWS V14.01,2013-07-04 00:42:00,
2013-07-03 19:48:00,85.2,56.0,18.50,ENE,65,0.0,2.0,37,0.00,,SKC,0.00,VWS V14.01,2013-07-04 00:48:00,
2013-07-03 19:54:00,84.8,55.7,18.50,ENE,65,0.0,2.0,37,0.00,,SKC,0.00,VWS V14.01,2013-07-04 00:54:00,
2013-07-03 20:00:00,84.4,55.3,18.50,ENE,65,0.0,2.0,37,0.00,,SKC,0.00,VWS V14.01,2013-07-04 01:00:00,
2013-07-03 20:06:00,84.1,55.8,18.50,ENE,65,1.0,1.0,38,0.00,,SKC,0.00,VWS V14.01,2013-07-04 01:06:00,
2013-07-03 20:12:00,83.6,56.8,18.50,ENE,65,0.0,1.0,40,0.00,,SKC,0.00,VWS V14.01,2013-07-04 01:12:00,
2013-07-03 20:18:00,83.0,56.2,18.50,ENE,65,0.0,1.0,40,0.00,,SKC,0.00,VWS V14.01,2013-07-04 01:18:00,
2013-07-03 20:24:00,82.5,55.8,18.50,ENE,65,0.0,1.0,40,0.00,,SKC,0.00,VWS V14.01,2013-07-04 01:24:00,
2013-07-03 20:30:00,82.0,55.3,18.50,ENE,65,0.0,1.0,40,0.00,,SKC,0.00,VWS V14.01,2013-07-04 01:30:00,
2013-07-03 20:36:00,81.9,55.2,18.50,ESE,102,1.0,3.0,40,0.00,,SKC,0.00,VWS V14.01,2013-07-04 01:36:00,
2013-07-03 20:42:00,81.8,55.8,18.50,ENE,70,2.0,3.0,41,0.00,,SKC,0.00,VWS V14.01,2013-07-04 01:42:00,
2013-07-03 20:48:00,81.6,55.6,18.50,ENE,72,0.0,3.0,41,0.00,,SKC,0.00,VWS V14.01,2013-07-04 01:48:00,
2013-07-03 20:54:00,81.2,56.0,18.50,ENE,72,0.0,3.0,42,0.00,,SKC,0.00,VWS V14.01,2013-07-04 01:54:00,
2013-07-03 21:00:00,80.8,57.5,18.50,East,81,1.0,3.0,45,0.00,,SKC,0.00,VWS V14.01,2013-07-04 02:00:00,
2013-07-03 21:07:00,80.3,57.0,18.50,East,81,0.0,1.0,45,0.00,,SKC,0.00,VWS V14.01,2013-07-04 02:07:00,
2013-07-03 21:13:00,79.5,58.1,18.50,East,81,0.0,1.0,48,0.00,,SKC,0.00,VWS V14.01,2013-07-04 02:13:00,
2013-07-03 21:22:00,78.3,57.0,18.50,East,81,1.0,2.0,48,0.00,,SKC,0.00,VWS V14.01,2013-07-04 02:22:00,
2013-07-03 21:28:00,77.5,57.4,18.50,ENE,78,0.0,3.0,50,0.00,,SKC,0.00,VWS V14.01,2013-07-04 02:28:00,
2013-07-03 21:30:00,81.9,55.9,18.50,ENE,65,1.0,2.0,41,0.00,,SKC,0.00,VWS V14.01,2013-07-04 02:30:00,
2013-07-03 21:34:00,77.2,56.0,18.50,ENE,78,1.0,2.0,48,0.00,,SKC,0.00,VWS V14.01,2013-07-04 02:34:00,
2013-07-03 21:43:00,77.7,56.5,18.50,ENE,75,2.0,3.0,48,0.00,,SKC,0.00,VWS V14.01,2013-07-04 02:43:00,
2013-07-03 21:49:00,77.6,55.8,18.50,ENE,75,1.0,3.0,47,0.00,,SKC,0.00,VWS V14.01,2013-07-04 02:49:00,
2013-07-03 21:58:00,77.4,56.2,18.50,East,88,1.0,6.0,48,0.00,,SKC,0.00,VWS V14.01,2013-07-04 02:58:00,
2013-07-03 22:00:00,80.7,56.8,18.50,East,81,1.0,3.0,44,0.00,,SKC,0.00,VWS V14.01,2013-07-04 03:00:00,
2013-07-03 22:04:00,77.1,55.9,18.50,East,88,2.0,2.0,48,0.00,,SKC,0.00,VWS V14.01,2013-07-04 03:04:00,
2013-07-03 22:10:00,77.0,55.8,18.50,East,88,1.0,3.0,48,0.00,,SKC,0.00,VWS V14.01,2013-07-04 03:10:00,
2013-07-03 22:16:00,76.8,55.7,18.50,East,88,1.0,3.0,48,0.00,,SKC,0.00,VWS V14.01,2013-07-04 03:16:00,
2013-07-03 22:25:00,76.5,55.9,18.50,East,88,0.0,3.0,49,0.00,,SKC,0.00,VWS V14.01,2013-07-04 03:25:00,
2013-07-03 22:30:00,77.2,56.6,18.50,ENE,78,0.0,3.0,49,0.00,,SKC,0.00,VWS V14.01,2013-07-04 03:30:00,
2013-07-03 22:31:00,76.1,57.2,18.50,East,88,0.0,3.0,52,0.00,,SKC,0.00,VWS V14.01,2013-07-04 03:31:00,
2013-07-03 22:44:00,75.9,56.5,18.50,East,100,0.0,5.0,51,0.00,,SKC,0.00,VWS V14.01,2013-07-04 03:44:00,
2013-07-03 22:50:00,76.0,56.6,18.50,East,100,2.0,5.0,51,0.00,,SKC,0.00,VWS V14.01,2013-07-04 03:50:00,
2013-07-03 22:56:00,75.8,56.9,18.50,East,100,2.0,5.0,52,0.00,,SKC,0.00,VWS V14.01,2013-07-04 03:56:00,
2013-07-03 23:00:00,77.3,55.5,18.50,East,88,2.0,6.0,47,0.00,,SKC,0.00,VWS V14.01,2013-07-04 04:00:00,
2013-07-03 23:01:00,75.5,57.2,18.50,East,100,1.0,5.0,53,0.00,,SKC,0.00,VWS V14.01,2013-07-04 04:01:00,
2013-07-03 23:02:00,75.5,57.2,18.50,East,100,2.0,3.0,53,0.00,,SKC,0.00,VWS V14.01,2013-07-04 04:02:00,
2013-07-03 23:05:00,75.4,57.1,18.50,East,79,0.0,3.0,53,0.00,,SKC,0.00,VWS V14.01,2013-07-04 04:05:00,
2013-07-03 23:08:00,75.3,57.5,18.50,East,79,1.0,3.0,54,0.00,,SKC,0.00,VWS V14.01,2013-07-04 04:08:00,
2013-07-03 23:14:00,74.9,57.7,18.50,East,79,1.0,3.0,55,0.00,,SKC,0.00,VWS V14.01,2013-07-04 04:14:00,
2013-07-03 23:20:00,74.7,57.5,18.50,East,80,1.0,4.0,55,0.00,,SKC,0.00,VWS V14.01,2013-07-04 04:20:00,
2013-07-03 23:26:00,74.7,58.0,18.50,East,89,3.0,5.0,56,0.00,,SKC,0.00,VWS V14.01,2013-07-04 04:26:00,
2013-07-03 23:30:00,76.1,57.2,18.50,East,88,0.0,3.0,52,0.00,,SKC,0.00,VWS V14.01,2013-07-04 04:30:00,
2013-07-03 23:31:00,74.7,58.0,18.50,East,90,1.0,5.0,56,0.00,,SKC,0.00,VWS V14.01,2013-07-04 04:31:00,
2013-07-03 23:38:00,74.7,58.5,18.50,ENE,70,3.0,5.0,57,0.00,,SKC,0.00,VWS V14.01,2013-07-04 04:38:00,
2013-07-03 23:44:00,74.8,58.6,18.50,East,88,0.0,5.0,57,0.00,,SKC,0.00,VWS V14.01,2013-07-04 04:44:00,
2013-07-03 23:50:00,74.9,58.7,18.50,ESE,113,1.0,6.0,57,0.00,,SKC,0.00,VWS V14.01,2013-07-04 04:50:00,
2013-07-03 23:56:00,75.2,58.9,18.50,East,100,0.0,7.0,57,0.00,,SKC,0.00,VWS V14.01,2013-07-04 04:56:00,